Wind_Speed
38 38 38 38 39 40 41 42 42 43 43 43 44 44 45 46 47 47 47 48 49 50 50 50 49 48 47 47 46 46 47 48 48 48 49 51 52 50 50 50 48 47 45 43 42 41 39 38 37 36 35 35 35 37 40 43 45 46 45 44 41 37 33 31 30 31 33 33 32 31 29 27 25 25 25 25 25 24 24 24 24 24 25 27 29 30 30 31
39 39 39 39 39 40 41 42 42 43 43 44 44 44 44 45 46 46 47 47 48 48 49 50 50 50 49 48 47 46 46 47 47 47 49 51 51 51 51 50 48 47 45 44 42 41 40 39 38 37 36 34 33 33 34 36 39 42 45 45 39 33 31 31 31 32 34 34 33 32 31 28 26 26 27 26 26 25 24 24 23 23 23 25 26 27 27 28
39 40 40 40 40 40 41 42 43 43 44 44 44 44 44 45 45 45 46 46 47 47 47 48 49 50 50 49 48 47 46 46 46 47 48 49 50 51 51 51 50 47 46 45 43 42 41 40 39 38 36 35 33 32 32 32 33 35 38 42 38 32 31 31 31 32 34 35 34 33 32 30 28 27 27 26 26 26 25 24 22 22 22 23 24 25 26 26
38 39 40 41 41 41 41 41 42 43 44 45 45 45 45 45 45 45 45 45 46 46 46 47 47 48 49 50 50 49 47 46 45 46 47 48 49 50 51 52 51 49 47 46 45 44 43 41 40 38 37 35 34 33 32 30 30 31 32 35 36 33 30 30 31 32 34 36 35 34 33 32 29 28 28 27 26 25 25 24 23 23 22 22 23 24 25 25
38 39 40 41 41 42 42 42 42 43 44 45 45 45 45 45 45 45 44 44 44 45 45 45 46 46 47 49 50 50 49 47 45 45 46 47 48 49 51 51 51 50 48 47 46 46 44 43 40 39 37 36 34 33 32 29 29 29 29 32 35 34 30 29 31 32 34 35 35 35 34 33 30 29 28 27 27 27 26 26 25 23 22 22 22 23 24 23
38 39 39 40 41 42 42 42 42 43 44 45 46 46 46 46 46 45 45 44 44 43 44 44 44 45 45 47 48 49 50 49 47 45 45 46 47 49 50 50 51 51 50 49 48 47 45 44 41 39 37 36 35 33 32 30 30 28 28 30 33 33 30 29 31 31 33 34 35 35 34 33 31 30 29 28 28 28 28 27 26 23 21 21 21 22 22 21
39 39 40 40 41 42 42 42 43 43 43 44 45 46 47 47 47 47 46 45 45 44 43 43 43 44 44 45 46 48 48 48 48 47 45 45 46 47 49 49 51 51 51 50 49 47 46 44 42 40 38 37 35 34 33 32 31 29 28 29 32 33 31 30 30 31 33 33 34 34 33 33 32 31 30 29 29 28 28 27 26 24 21 20 21 22 22 22
41 41 41 41 41 42 42 42 43 43 43 44 45 46 47 48 48 48 48 47 46 45 44 43 42 42 43 44 45 45 45 46 49 49 47 46 46 47 48 49 50 51 51 51 50 48 46 45 43 42 40 38 35 34 34 33 32 29 27 28 31 33 33 33 32 32 33 33 34 33 33 33 33 32 31 30 30 29 28 27 26 24 22 21 21 22 23 23
42 42 42 42 42 42 43 43 43 43 43 43 44 45 46 48 48 49 49 48 48 46 45 44 42 41 42 43 44 43 41 44 48 49 49 48 46 46 48 49 49 50 51 52 51 49 48 46 45 43 41 38 37 36 35 34 32 29 27 28 30 33 36 36 35 33 34 34 34 33 33 33 33 32 31 31 30 30 29 28 28 26 23 22 22 23 23 23
44 43 43 43 43 43 44 44 44 44 43 43 44 45 46 47 48 49 50 50 49 48 47 45 43 42 41 42 43 41 39 43 47 48 49 49 47 46 47 48 49 49 50 51 51 49 47 46 45 44 42 40 39 37 37 35 32 29 29 28 30 34 37 39 37 35 35 34 34 33 34 33 32 32 31 31 31 30 29 29 29 27 24 22 22 23 24 24
45 45 45 45 45 45 45 45 45 45 45 44 44 44 45 47 48 49 50 51 51 50 49 47 45 44 42 42 40 37 39 43 46 47 49 49 48 46 46 47 48 48 49 50 50 50 48 47 46 44 44 42 40 39 38 36 33 31 30 28 28 32 37 39 38 36 35 34 33 34 34 33 32 31 31 32 32 31 30 30 30 27 24 23 23 24 24 24
46 46 47 47 47 47 47 47 47 47 46 45 45 44 45 46 47 49 50 51 51 51 50 49 48 45 44 43 38 36 40 43 45 46 47 47 48 47 46 46 47 48 48 49 50 50 49 48 46 45 44 43 41 40 39 37 35 32 30 28 27 29 35 39 40 38 36 34 34 34 34 33 31 31 31 31 31 30 30 30 29 26 24 24 23 24 24 24
48 48 49 49 49 49 49 49 49 49 48 48 47 45 45 46 47 49 50 51 51 52 51 51 50 48 47 42 36 39 43 42 42 44 45 46 47 47 46 46 46 48 48 49 49 50 50 49 47 45 44 43 42 42 40 38 35 32 30 28 27 28 32 38 41 40 36 34 35 35 34 32 31 31 31 31 30 30 30 29 27 25 25 24 24 24 24 23
50 50 51 51 51 51 51 51 51 51 50 50 49 48 47 46 47 48 49 50 51 52 51 51 51 50 48 40 36 43 44 39 40 43 45 45 46 47 47 47 46 47 49 49 49 50 51 50 49 46 45 44 43 43 41 38 35 33 31 30 29 28 30 36 41 41 37 36 36 35 34 32 30 31 30 30 30 29 29 28 27 26 25 24 23 23 23 23
53 52 52 52 52 52 52 52 52 52 52 52 51 50 48 48 48 48 48 49 50 52 52 52 51 51 48 41 39 45 43 38 39 42 44 44 45 46 47 48 47 47 49 50 49 50 51 51 50 48 47 45 44 43 42 39 37 35 33 33 31 29 29 33 39 41 38 37 38 37 34 32 30 30 29 29 29 29 29 28 27 26 25 24 23 23 22 22
54 54 54 54 53 53 53 53 53 54 54 54 54 52 50 50 50 48 47 48 50 51 51 52 51 51 48 42 41 44 42 40 39 41 43 42 43 45 46 48 47 47 48 50 50 50 51 51 51 49 48 46 45 44 43 41 39 37 35 34 32 30 29 31 35 39 40 39 40 39 36 32 30 30 29 27 28 28 28 28 27 26 26 25 23 22 21 21
56 55 55 55 55 54 54 54 54 55 55 55 55 54 52 52 52 50 48 48 48 50 51 51 51 50 48 44 42 44 43 41 39 39 41 41 41 43 45 47 48 47 48 50 51 51 52 52 51 50 49 48 47 46 45 43 41 39 37 35 33 30 29 30 31 34 38 40 41 40 37 34 31 30 28 27 27 27 26 26 27 27 26 25 24 24 23 22
57 57 57 57 57 56 56 56 56 56 56 56 57 55 54 55 54 52 50 49 48 49 50 50 50 49 48 45 43 43 43 41 39 39 40 40 40 42 44 47 48 48 47 49 51 52 52 52 52 52 51 50 49 49 48 45 41 39 37 35 32 30 29 29 29 30 35 38 39 39 38 36 34 31 29 28 28 26 26 27 28 27 26 25 25 24 23 22
58 59 59 59 59 59 58 58 58 58 58 58 58 57 56 56 56 55 53 51 48 48 49 49 49 48 47 45 44 43 43 42 40 39 40 40 40 41 44 47 48 48 48 48 50 52 52 52 53 53 52 51 50 49 48 45 41 39 37 34 32 30 30 29 28 29 31 35 36 37 37 36 35 33 30 29 27 27 28 29 30 29 26 24 24 25 24 24
61 61 61 61 62 62 61 61 60 60 61 60 59 59 58 57 57 56 55 53 50 48 47 47 47 47 46 45 43 42 43 43 40 39 39 39 39 40 43 46 48 49 49 48 48 50 52 52 52 52 51 51 50 48 46 44 42 40 37 35 34 32 31 31 29 29 30 32 33 33 34 35 35 34 32 30 28 28 29 29 28 26 24 24 25 26 26 25
64 64 64 64 64 64 64 64 64 64 63 63 62 61 60 59 57 57 56 54 52 50 48 47 47 46 45 44 43 42 43 43 41 39 39 39 40 40 42 45 48 50 50 49 48 49 51 52 51 50 50 49 48 47 46 44 43 41 38 37 36 34 33 32 31 29 29 30 31 31 32 34 35 34 33 32 32 30 29 27 26 25 25 25 26 27 26 25
67 67 66 65 64 63 63 64 64 65 66 66 65 64 62 60 58 57 57 54 51 51 50 48 47 45 45 46 44 43 44 43 42 40 39 40 40 40 41 44 47 49 50 50 49 49 50 51 51 50 50 49 49 48 47 45 43 41 40 38 37 36 34 33 33 31 30 30 30 29 30 32 34 35 34 33 32 30 29 29 29 30 29 28 28 27 25 27
67 65 64 63 61 60 59 60 61 63 65 67 67 66 65 63 60 57 56 54 50 51 51 49 47 45 46 48 45 44 44 43 42 41 40 40 40 40 40 42 46 48 50 50 49 48 49 50 50 50 50 50 50 49 48 46 43 43 42 39 38 36 35 35 34 33 31 30 29 28 28 30 32 33 32 31 30 30 32 34 35 34 32 30 29 28 27 27
64 62 61 60 59 57 56 56 56 58 61 64 66 67 68 66 62 58 56 54 50 49 51 50 49 47 47 49 46 43 43 43 43 42 40 40 40 40 40 41 44 47 48 49 49 47 47 47 48 49 49 49 49 49 48 46 44 44 43 41 39 37 36 36 35 34 33 31 30 28 28 29 29 29 29 29 29 32 35 36 36 34 32 31 29 28 28 24
61 61 59 59 58 57 56 54 53 54 56 59 62 65 67 66 63 60 58 55 50 48 50 50 49 48 48 49 46 42 42 42 43 43 41 40 39 40 40 40 43 46 47 49 49 48 47 46 46 48 48 48 49 49 48 46 44 44 44 42 39 37 36 36 36 36 34 33 31 30 29 29 28 27 28 28 30 33 35 34 32 31 31 31 29 28 27 21
60 60 59 58 57 56 55 52 51 51 52 53 55 58 63 63 61 61 58 54 49 46 49 50 49 49 49 47 45 43 42 42 43 43 41 40 40 40 40 40 41 45 47 48 48 48 48 46 46 47 48 48 48 48 47 45 44 44 44 41 39 37 37 37 37 37 36 35 33 31 31 30 28 28 29 30 32 34 35 33 30 30 29 28 29 29 25 21
57 57 56 54 52 50 48 46 46 47 47 48 48 51 55 55 56 59 56 52 49 47 48 49 49 49 48 46 46 44 43 42 43 44 42 41 40 40 41 41 41 44 47 48 49 49 48 47 46 47 48 48 48 48 47 46 45 44 43 41 40 37 36 37 38 37 37 35 34 33 33 32 31 31 31 32 34 35 35 33 30 29 27 25 28 29 26 24
52 51 49 46 43 40 37 36 37 37 40 42 42 43 46 46 49 53 52 50 48 46 47 48 49 48 45 45 46 45 43 42 44 44 43 42 41 40 41 41 40 42 46 49 50 50 49 47 46 47 48 48 49 47 46 45 45 44 42 40 39 36 35 36 36 37 36 36 36 35 35 35 35 33 33 34 35 35 34 31 29 28 26 24 25 28 27 25
46 45 42 37 33 29 26 26 26 28 32 35 34 34 37 39 42 47 49 48 45 44 46 47 48 47 45 45 46 45 43 42 43 44 44 43 41 40 40 40 39 41 44 47 49 49 49 47 45 46 46 47 47 46 45 44 44 43 41 40 39 37 36 36 37 37 37 38 39 37 37 38 37 36 35 36 35 34 32 29 27 27 26 25 24 26 26 25
43 41 34 27 24 21 20 18 18 21 24 27 25 25 29 34 38 42 45 44 41 42 44 46 47 46 45 45 45 45 44 43 43 44 44 43 42 41 41 41 40 40 43 47 49 49 48 46 45 45 45 45 44 44 43 43 43 43 41 39 39 38 37 37 38 38 39 42 40 38 38 39 39 38 36 36 34 33 31 28 27 27 26 25 25 26 26 25
41 37 27 21 19 18 16 13 15 19 21 23 22 22 27 31 33 37 40 39 37 40 42 43 45 46 45 45 45 44 44 43 42 43 43 44 43 42 42 43 42 42 44 48 50 50 48 48 46 44 44 45 45 44 44 43 44 44 42 41 40 40 39 39 39 40 42 45 42 39 40 41 42 39 36 36 35 34 33 30 29 27 24 24 25 26 27 27
39 36 24 16 16 17 14 11 14 18 20 23 23 23 27 29 29 34 37 37 35 36 40 41 42 44 44 44 45 44 43 42 42 42 42 43 43 42 43 43 43 43 45 49 51 51 49 49 47 45 45 46 46 46 46 46 47 46 44 43 43 43 43 42 43 44 46 47 44 40 41 44 43 39 36 36 36 35 34 32 30 28 25 24 25 26 27 30
37 37 23 13 14 14 11 9 16 23 20 22 25 27 30 28 27 30 34 36 31 29 38 40 38 41 42 42 44 43 43 42 42 42 42 43 42 42 43 42 43 43 44 47 52 53 51 50 49 47 46 46 47 47 47 48 49 49 47 46 47 47 47 47 47 47 48 49 46 41 42 45 44 40 37 37 36 35 35 32 30 29 27 27 28 28 30 31
35 36 25 12 11 9 6 9 22 27 19 21 26 29 32 27 24 28 32 35 31 27 36 39 36 38 39 40 42 41 41 41 42 42 42 43 43 42 43 43 43 43 43 45 50 52 53 53 51 49 47 47 47 47 46 44 45 46 45 45 46 47 47 46 47 47 48 48 46 42 44 47 45 41 38 37 37 36 35 32 30 30 29 29 29 30 31 31
33 35 26 12 7 4 7 18 26 24 18 21 26 30 33 26 21 25 31 33 29 27 34 37 35 36 37 38 39 39 39 40 41 42 42 43 43 42 43 43 44 44 44 45 48 50 51 51 50 49 48 47 47 47 45 44 43 44 43 43 45 45 43 42 42 44 46 47 46 44 45 47 46 43 39 37 37 36 35 33 32 32 31 30 29 28 28 30
28 32 27 13 5 5 17 23 22 19 18 21 27 32 31 26 23 25 29 31 27 26 33 33 32 35 35 36 37 37 38 39 39 41 41 43 43 42 43 43 44 45 45 45 47 49 50 49 48 47 46 45 45 44 45 45 45 45 44 45 45 43 41 41 41 42 44 47 47 44 46 48 47 44 40 38 38 37 35 34 33 33 32 30 28 24 24 29
24 25 24 18 10 15 22 19 17 18 17 22 30 30 27 26 26 27 29 29 24 25 29 25 26 33 34 33 34 35 37 38 39 40 40 42 43 43 43 44 45 45 45 45 46 47 48 48 48 46 44 44 43 42 42 43 44 44 44 44 43 42 43 43 43 43 45 47 47 45 46 48 47 44 41 39 38 37 35 35 35 33 30 27 25 22 21 26
23 18 17 18 15 15 16 13 13 13 16 27 31 25 25 27 28 30 30 27 21 25 27 20 22 31 32 31 33 34 35 37 38 39 40 41 42 43 43 44 45 45 45 44 45 45 45 46 46 44 43 44 43 42 43 44 44 43 42 41 41 43 45 45 46 46 47 48 47 45 46 47 46 45 42 39 37 36 35 35 35 32 27 24 23 22 21 21
24 16 10 11 11 8 7 7 8 10 22 32 28 23 28 29 31 34 31 25 21 25 26 23 24 29 30 31 32 32 34 36 38 39 39 41 42 43 44 45 45 46 46 45 44 45 44 44 44 43 42 43 44 45 45 46 46 45 42 41 41 43 44 44 46 46 47 47 47 45 45 46 46 44 41 38 36 35 35 35 34 30 26 23 23 24 23 23
23 17 8 4 4 3 1 3 7 17 29 30 23 25 30 33 37 34 27 23 22 24 26 26 26 27 28 30 31 32 34 36 37 38 39 41 42 43 44 45 45 46 46 45 45 44 44 44 44 44 43 44 46 47 46 45 46 46 46 45 45 45 45 44 44 45 46 46 46 44 44 45 44 42 40 38 36 35 34 34 33 29 26 25 24 24 25 27
20 16 8 2 1 0 1 4 15 28 31 23 22 27 32 36 36 28 24 25 24 23 24 25 25 25 26 29 31 32 34 35 37 38 39 41 42 43 44 45 45 46 46 46 46 45 44 44 44 45 46 46 46 45 43 42 42 43 44 44 45 46 47 46 46 46 46 46 46 44 43 44 42 40 38 37 36 35 34 32 31 29 26 26 26 23 24 26
21 15 6 1 2 1 3 13 27 32 26 21 25 31 37 37 30 25 27 28 24 24 24 23 24 24 25 28 30 31 34 35 37 38 39 40 42 43 44 44 44 44 44 45 46 45 44 43 43 44 44 44 42 40 40 40 40 40 41 41 41 44 45 46 47 47 47 48 47 44 42 43 41 38 36 35 35 34 33 31 28 28 27 27 27 24 23 25
27 20 13 6 6 7 13 26 34 30 24 23 29 36 38 31 27 27 29 25 23 25 24 22 22 22 24 26 29 31 33 35 36 37 38 40 41 42 42 43 43 43 44 44 45 44 43 42 42 43 42 40 38 37 38 40 42 43 43 43 43 43 44 45 46 45 45 47 46 44 43 42 40 37 35 34 35 34 32 31 28 27 27 27 27 25 23 24
31 26 21 15 12 15 23 32 32 27 27 30 35 38 33 27 28 28 26 24 23 24 22 20 19 20 22 24 27 29 31 33 35 36 37 38 40 41 41 41 42 42 42 42 42 42 42 42 42 42 42 42 41 41 41 43 45 46 46 46 46 45 44 45 45 45 45 45 45 44 43 41 39 37 34 33 33 33 32 30 28 26 26 26 27 26 23 22
30 27 23 19 17 21 27 29 27 27 31 35 38 34 28 27 28 26 23 23 23 22 21 19 16 16 18 21 24 26 28 30 32 33 35 36 38 40 40 40 41 41 39 38 38 39 39 40 41 42 43 44 45 46 46 47 48 48 47 46 47 46 46 45 45 45 45 45 44 43 42 40 37 36 34 33 32 32 31 29 28 27 27 27 27 26 23 21
27 25 21 19 20 23 27 26 26 29 33 35 34 28 26 29 28 24 22 22 22 22 21 19 16 14 14 16 20 23 25 27 28 29 32 35 37 38 39 39 40 39 38 37 38 38 37 38 38 39 39 39 39 40 42 44 45 46 46 46 46 46 46 46 46 46 45 44 43 43 41 39 37 36 34 33 32 32 31 29 29 28 28 27 27 25 24 23
26 24 20 19 21 24 26 26 28 31 33 30 27 25 28 30 27 23 20 19 20 21 21 19 18 14 11 12 17 21 23 24 25 27 29 33 35 36 38 38 38 38 39 39 39 38 38 37 37 37 37 37 35 35 36 39 40 42 43 44 45 46 46 46 46 45 45 44 43 42 40 39 38 36 34 33 32 32 31 29 28 28 26 26 27 26 25 24
26 24 21 20 21 22 23 27 30 31 28 24 23 25 27 27 24 22 21 18 18 20 20 19 19 15 12 12 16 19 21 23 24 25 28 31 33 35 36 37 38 38 39 39 40 39 38 37 36 36 36 37 37 36 37 38 39 40 41 41 43 45 46 46 45 45 45 45 43 41 40 39 37 36 34 34 32 31 30 30 28 27 26 25 26 26 25 23
27 26 22 20 19 20 24 28 29 26 23 21 22 23 24 24 22 22 24 21 18 20 21 19 18 17 16 16 16 16 19 23 24 25 28 30 32 34 35 36 37 38 38 38 39 39 37 36 34 34 34 36 37 38 38 38 38 40 41 41 41 43 44 44 44 44 44 44 43 41 39 38 36 35 34 33 33 31 30 29 28 27 26 25 25 25 24 24
25 24 22 20 21 24 28 28 24 21 21 21 21 22 23 22 22 22 22 20 19 20 20 18 18 18 18 19 16 15 18 22 23 25 27 28 30 32 33 34 35 36 37 37 37 37 36 35 34 33 33 35 35 36 38 39 39 39 40 41 42 43 44 44 44 44 44 44 43 42 40 38 36 35 34 34 33 32 31 29 27 26 25 24 24 24 24 25
25 24 24 24 24 23 23 20 19 20 22 21 21 20 19 18 19 19 18 16 18 19 17 16 17 18 18 18 16 15 18 21 22 23 25 25 26 28 30 31 31 33 34 36 36 35 34 34 34 33 33 34 34 35 37 39 40 39 39 40 42 43 45 45 45 44 44 44 44 43 41 38 36 35 35 34 33 32 32 30 28 26 25 23 23 24 24 25
20 21 20 20 19 19 18 18 19 21 22 20 19 18 18 17 15 13 13 13 16 16 14 14 16 17 17 17 15 13 15 20 21 21 23 24 22 23 25 26 28 29 31 33 34 33 33 33 33 34 34 33 33 34 36 38 40 41 41 41 41 43 45 45 45 45 44 44 44 43 41 38 36 36 35 34 33 32 31 31 29 28 27 25 25 24 24 26
Wind_Direction
274 272 269 267 264 263 262 261 260 260 259 259 258 257 256 256 255 255 254 254 253 251 250 250 249 248 248 247 246 245 245 245 244 242 240 239 239 238 239 240 240 240 241 241 240 241 241 242 243 243 243 243 243 243 242 242 241 241 242 242 243 243 244 242 240 238 239 240 240 240 241 239 235 235 235 235 236 235 235 235 237 239 239 240 241 241 242 244
278 276 273 270 267 265 262 261 260 260 259 259 258 258 257 256 255 254 254 253 253 252 251 250 249 248 248 247 247 246 245 244 244 242 240 239 239 238 238 239 239 240 241 241 240 240 240 240 241 242 242 243 243 243 243 243 242 242 241 241 241 241 241 238 236 235 237 239 240 240 240 238 235 234 234 235 235 235 236 236 235 237 238 239 241 241 241 241
279 278 276 273 271 268 265 262 260 259 259 258 258 258 257 256 255 254 253 253 252 252 252 251 250 249 248 247 247 246 245 244 243 242 241 239 238 238 237 238 238 238 239 240 239 238 239 239 240 241 241 242 243 243 243 243 243 243 242 240 239 239 238 236 233 233 234 237 238 238 239 238 235 234 234 235 237 238 238 238 235 234 237 238 238 238 239 239
279 278 277 275 273 271 268 265 262 260 258 258 258 257 257 257 256 255 254 253 252 252 251 251 250 249 248 247 246 245 245 244 243 242 241 240 238 237 236 236 236 236 237 238 238 237 237 237 238 239 240 241 241 242 243 244 244 244 243 239 235 235 235 233 231 231 233 235 235 236 236 236 235 234 234 235 237 240 241 241 237 234 234 235 235 236 237 237
280 278 277 276 275 273 271 268 265 262 259 258 257 257 257 256 256 255 254 254 253 252 251 250 250 249 248 247 246 245 244 244 243 242 241 239 238 237 236 235 235 235 235 236 236 236 236 236 236 237 239 240 241 242 243 243 244 243 241 237 231 230 231 231 230 230 232 234 235 235 235 236 235 234 234 234 236 238 239 239 238 235 233 233 233 235 238 237
281 279 277 276 275 274 272 270 267 264 261 259 257 256 256 256 256 255 255 254 253 252 251 250 250 249 248 247 246 245 244 243 242 241 240 239 237 237 236 235 234 234 233 234 235 235 235 235 235 236 237 238 239 240 241 241 241 240 238 234 228 226 228 230 229 229 231 233 234 234 235 235 234 233 233 233 235 237 239 240 240 238 236 236 237 237 237 235
281 279 278 276 275 273 272 271 269 267 263 261 258 256 255 255 255 255 255 254 253 252 251 250 250 249 248 247 246 245 244 243 242 240 239 239 237 235 235 235 234 233 232 232 233 234 234 234 234 235 235 236 237 238 239 239 238 238 236 231 225 222 224 228 227 227 230 231 233 233 233 234 234 233 233 233 234 237 239 241 243 242 240 241 243 242 239 235
282 280 278 277 275 274 273 271 270 269 266 263 260 257 255 254 253 253 253 253 253 253 252 251 250 249 248 247 246 245 244 243 241 239 238 238 236 234 233 234 233 232 231 231 232 232 233 233 233 233 234 234 235 236 237 237 236 237 236 230 224 219 221 225 225 226 227 229 231 231 231 232 232 232 232 233 234 235 237 241 243 242 241 241 244 245 244 242
282 280 279 277 276 274 273 272 270 269 267 265 262 259 256 253 252 252 252 252 252 252 251 251 250 249 248 247 246 244 243 242 241 239 237 236 236 234 232 232 232 231 230 231 230 230 231 231 231 232 232 232 232 233 234 235 234 234 234 231 224 217 217 222 223 224 225 226 228 229 229 230 230 230 231 231 232 233 236 239 241 241 240 241 243 246 247 246
283 281 279 278 276 275 273 272 270 269 268 266 264 260 257 254 252 251 250 250 251 251 251 250 249 248 248 247 246 245 243 242 241 239 237 235 234 234 232 231 231 230 230 230 230 230 230 231 231 231 231 230 230 231 232 233 232 231 231 231 225 217 216 220 221 222 224 225 227 228 229 229 229 229 230 230 230 232 234 237 240 241 240 241 243 246 248 248
283 281 279 278 277 275 273 272 270 269 268 266 265 262 259 256 253 250 249 249 249 249 249 249 249 248 248 246 246 247 244 241 240 239 237 234 233 232 232 231 230 229 229 229 229 229 229 229 230 230 230 229 229 229 230 231 230 229 230 231 227 220 217 219 220 222 223 225 226 227 229 229 229 230 230 230 229 230 233 236 239 241 241 241 244 247 249 249
282 281 279 278 276 275 273 272 270 269 267 266 265 263 260 257 254 251 249 248 247 247 248 248 248 248 247 246 246 248 244 241 240 239 237 235 232 231 230 230 229 228 228 228 228 228 228 228 228 229 229 229 229 229 230 230 229 227 229 230 227 223 219 218 219 220 222 224 226 227 229 228 228 231 232 232 231 231 232 235 239 241 242 243 246 249 250 249
282 280 279 277 275 274 272 271 269 268 267 265 264 263 261 258 255 252 250 248 246 246 246 246 247 247 246 245 246 246 243 241 241 239 238 235 232 230 229 229 228 226 226 226 226 226 226 226 227 227 228 228 228 228 229 229 229 227 227 228 226 224 220 218 219 220 220 223 225 227 228 228 229 231 233 234 233 232 234 236 239 241 244 246 248 249 249 247
282 280 278 277 275 273 271 270 268 267 266 264 263 262 261 259 256 253 251 248 246 245 244 245 245 246 245 243 244 245 243 242 240 239 237 234 232 229 227 227 227 225 224 224 224 224 225 225 225 225 225 226 227 228 228 227 227 226 224 225 225 224 220 218 219 219 219 222 225 226 228 228 229 231 233 235 235 234 234 235 238 241 244 247 249 250 247 245
282 280 278 276 274 273 271 269 267 266 264 263 262 261 260 259 257 254 251 249 246 245 244 243 244 244 243 241 241 244 244 242 240 238 237 234 231 229 226 225 225 224 222 222 223 223 223 223 223 223 223 224 225 227 227 225 224 224 223 223 223 223 220 218 219 218 217 220 224 226 226 227 229 230 232 234 235 234 233 234 236 239 242 245 248 246 242 242
283 281 279 276 274 272 270 268 267 265 263 262 261 259 258 257 256 255 252 249 246 245 243 242 242 242 242 239 239 242 243 241 239 238 237 234 231 228 225 224 224 223 222 221 221 221 221 222 221 221 222 222 222 224 225 224 222 221 221 222 222 221 220 219 219 217 216 219 223 225 225 226 228 230 231 232 234 234 233 234 234 236 238 241 243 240 237 240
283 281 279 277 275 273 271 268 266 264 263 261 260 258 256 255 254 253 251 249 246 244 242 241 240 240 241 239 237 239 241 240 238 238 237 234 230 227 224 223 222 222 221 220 220 220 220 220 220 220 221 221 221 221 222 221 220 219 219 220 220 220 220 221 220 218 217 220 223 225 225 224 225 228 229 231 234 236 236 237 236 236 235 236 239 240 242 245
284 282 279 277 275 273 271 269 267 265 262 261 259 257 255 254 253 251 250 248 246 244 242 240 239 238 239 238 236 236 238 238 236 235 235 233 230 225 222 221 221 221 220 220 220 219 220 219 219 219 219 220 220 220 220 218 217 218 220 220 220 220 221 222 221 218 218 220 223 225 225 223 224 224 226 229 231 234 239 241 239 236 235 236 240 245 248 248
284 282 280 278 276 274 272 269 267 265 263 260 259 257 255 253 251 250 248 246 244 243 241 239 238 237 237 237 236 233 234 235 234 233 233 232 229 224 221 219 219 219 219 220 219 219 219 219 218 218 218 219 219 220 220 218 217 218 220 221 221 221 222 223 222 219 218 220 223 225 225 224 224 224 225 228 229 231 234 237 237 235 234 235 240 246 247 246
285 283 281 279 277 274 272 269 267 264 262 260 258 256 254 252 250 249 247 245 243 241 240 238 236 236 236 235 234 232 231 233 232 231 231 231 229 224 220 218 217 217 218 219 219 219 219 219 219 219 219 219 219 221 221 219 217 217 218 219 219 219 221 222 222 220 219 220 222 224 224 223 224 224 224 227 227 228 231 233 236 236 236 236 239 243 244 245
288 285 283 281 278 275 272 269 265 263 260 259 256 255 253 251 249 248 246 244 242 240 238 236 234 233 234 233 232 230 228 230 230 229 229 229 228 224 220 218 217 217 217 217 217 218 219 220 219 219 219 219 220 221 221 220 217 216 216 217 218 217 219 221 222 221 220 220 221 223 223 223 224 224 224 225 225 226 229 233 235 237 238 237 238 241 241 245
290 288 286 282 279 276 272 268 265 261 258 256 254 253 251 250 248 247 245 243 240 239 236 235 232 230 232 232 230 228 226 226 227 226 227 228 227 225 221 217 217 217 216 216 216 216 218 219 218 218 217 217 219 220 221 220 217 216 215 216 217 216 217 219 220 220 220 220 221 222 223 224 226 226 225 225 224 223 225 228 231 232 232 232 235 240 240 242
293 291 288 286 282 278 274 269 265 260 256 253 251 250 248 247 246 245 244 241 238 238 235 233 231 228 230 231 228 226 225 223 225 224 224 225 225 225 222 218 217 216 215 216 217 218 219 219 216 216 216 216 217 218 219 219 217 216 215 214 216 216 216 218 219 220 219 220 221 221 221 223 226 227 227 225 223 222 220 221 225 227 227 227 231 237 239 241
295 293 291 289 285 281 277 271 266 260 256 252 249 247 245 244 243 242 241 239 235 234 234 231 229 226 227 229 226 225 224 222 223 223 222 223 224 223 222 218 216 215 215 215 216 217 219 219 217 216 216 216 217 217 218 219 217 216 215 213 214 216 216 217 219 220 220 220 221 220 220 222 223 225 226 225 223 223 222 223 226 227 228 228 228 232 238 242
298 296 294 290 287 283 278 273 267 261 256 252 249 246 244 241 240 239 238 237 232 231 232 229 226 226 226 226 225 223 223 222 223 223 222 222 222 222 221 218 215 214 214 214 215 215 215 216 215 216 216 216 217 217 218 218 217 217 216 214 213 215 216 217 218 220 220 220 220 220 221 221 221 222 222 222 222 223 225 228 229 230 232 229 227 230 236 237
301 299 296 292 288 283 278 272 266 259 254 251 249 246 243 240 239 237 235 234 230 226 228 227 224 225 224 223 222 221 221 220 221 221 222 222 221 220 220 217 215 213 211 212 214 214 214 213 212 213 214 215 216 217 217 217 217 217 216 215 214 215 216 216 217 219 220 221 220 220 222 222 220 220 220 220 221 223 225 227 226 228 232 228 224 228 231 229
304 301 298 295 290 285 278 271 263 256 250 247 245 244 242 239 237 235 232 230 228 223 224 224 223 223 222 221 220 219 218 217 218 218 219 220 220 220 219 217 214 212 210 210 212 213 213 212 210 211 212 213 214 215 215 215 216 216 215 215 215 215 217 217 218 219 221 222 222 221 223 223 221 221 221 220 222 225 226 226 223 224 229 224 221 226 229 226
307 305 303 299 294 287 279 270 261 252 245 241 238 238 237 234 233 231 228 226 225 222 220 221 221 220 220 219 218 218 217 215 217 217 216 218 218 218 219 217 214 212 210 210 211 211 212 212 210 209 210 211 212 213 214 214 216 215 214 214 215 214 216 218 219 220 221 222 223 223 224 225 224 222 223 224 224 227 228 228 227 227 228 222 220 226 229 228
315 313 309 302 295 289 282 271 258 244 236 233 229 229 229 225 225 225 222 220 221 220 218 218 219 218 217 216 216 216 215 214 215 215 214 215 216 216 217 217 214 211 210 211 212 212 212 212 210 209 210 211 211 211 212 213 215 215 212 213 214 213 214 215 217 219 221 222 222 224 225 227 226 223 225 228 228 230 233 232 232 231 229 224 222 225 228 229
325 322 313 301 294 292 288 274 249 228 222 219 216 216 215 213 216 217 215 214 216 216 216 216 216 216 215 214 214 214 214 214 214 214 213 213 213 214 214 214 212 210 209 209 211 212 212 212 210 208 208 209 210 211 211 212 214 214 211 211 213 212 212 214 216 218 220 221 220 223 227 228 229 226 226 230 231 234 236 235 235 233 229 224 222 224 225 222
334 330 318 299 293 294 290 271 234 211 199 197 200 200 198 201 208 210 207 205 209 213 213 213 214 214 213 212 213 213 212 213 214 214 213 212 212 211 212 212 209 207 207 208 210 210 210 211 209 207 207 207 207 208 210 210 213 212 209 210 211 211 211 211 213 216 219 220 219 221 227 230 230 227 226 231 232 234 236 234 234 234 230 226 224 225 223 217
342 339 325 297 291 294 286 262 217 186 173 180 186 182 184 191 200 201 198 197 201 209 211 210 212 212 212 211 212 213 212 211 212 213 212 213 213 211 211 211 209 208 207 207 208 209 209 209 208 205 205 206 206 206 207 208 210 211 209 208 209 210 210 210 212 213 216 220 218 218 225 230 231 228 226 230 232 233 235 234 234 233 229 225 225 226 224 219
350 346 334 302 290 289 278 244 187 160 157 178 179 174 178 184 190 191 190 190 191 203 209 208 208 210 210 210 212 212 211 210 211 211 210 210 212 211 210 210 209 210 210 208 207 207 206 207 207 204 203 204 205 206 208 208 209 210 208 208 210 211 210 210 212 213 216 220 219 217 224 230 232 229 227 229 232 234 235 235 235 235 232 226 223 222 222 221
355 352 345 320 296 287 260 196 166 153 157 180 178 176 177 173 178 184 183 182 182 194 205 204 205 207 208 209 210 211 210 209 210 210 208 208 209 209 209 209 208 209 210 210 210 209 207 206 205 204 202 203 204 205 208 210 212 213 211 210 213 214 214 213 214 215 217 222 221 218 223 230 233 231 228 229 232 234 236 235 234 234 234 231 227 223 219 219
359 360 356 341 320 295 179 156 153 153 163 179 177 172 168 160 165 178 178 175 175 191 202 202 202 205 205 206 207 207 207 207 208 209 207 207 209 208 207 207 207 207 208 208 210 211 209 208 207 204 202 202 203 203 205 207 210 213 212 211 214 216 216 216 217 219 220 223 223 220 223 230 232 232 230 228 231 234 235 235 234 235 235 235 235 232 224 220
1 6 9 8 12 116 141 139 145 159 170 178 170 161 160 159 160 170 173 167 167 188 200 199 201 204 204 204 203 203 204 203 204 207 206 205 206 207 206 206 206 207 207 207 209 210 210 209 208 207 204 202 203 203 204 206 208 208 209 210 213 214 214 214 215 217 221 225 225 222 224 229 232 232 232 230 230 232 234 234 234 236 236 237 240 240 238 232
1 7 20 30 56 118 132 135 150 164 174 173 158 150 158 162 157 159 162 155 159 185 192 190 199 203 203 202 201 200 201 201 201 203 205 205 205 204 205 205 204 206 207 207 208 209 210 209 208 207 205 204 204 203 204 207 210 210 209 208 208 209 211 212 213 215 219 223 225 223 225 230 232 233 233 232 231 230 231 232 234 236 237 240 244 244 250 242
0 2 19 35 60 106 125 138 153 166 174 160 147 146 160 160 150 148 148 142 156 182 180 174 192 199 199 200 199 197 197 199 200 200 201 204 205 204 203 204 203 203 205 207 208 208 208 210 209 207 205 204 204 204 203 205 208 210 211 208 207 209 211 211 212 214 217 221 223 222 224 228 231 233 234 234 233 230 228 230 234 238 239 242 244 244 253 243
359 358 4 33 53 79 109 141 161 170 160 150 145 154 161 154 145 145 144 138 156 179 175 173 188 194 194 196 197 196 195 196 199 199 199 201 203 203 203 203 203 202 203 204 207 207 206 207 208 207 207 205 204 205 203 204 205 206 207 206 206 210 214 214 214 216 217 220 223 222 223 227 230 232 233 234 233 230 228 228 231 235 236 238 241 239 245 242
353 352 348 17 44 55 121 199 180 155 146 144 153 160 155 147 144 145 143 141 159 176 176 179 187 187 190 193 193 193 193 194 196 198 199 200 201 202 202 202 203 202 202 202 204 205 205 206 205 205 206 206 205 206 204 204 205 205 205 203 203 207 211 213 216 218 219 221 223 222 223 227 230 232 232 232 232 229 228 229 229 231 232 234 238 235 236 242
353 348 339 299 299 9 256 204 161 145 137 143 159 156 147 144 142 140 140 146 159 168 173 183 185 182 186 189 189 191 191 193 195 196 198 199 200 200 200 201 202 203 202 201 203 203 203 205 204 205 207 206 206 206 205 204 206 208 209 207 205 206 208 210 213 216 219 222 224 223 224 227 229 231 231 230 230 230 229 230 230 230 230 232 237 236 234 242
13 9 6 227 186 121 146 153 147 137 127 139 155 148 143 141 134 131 139 147 155 161 171 183 180 178 184 186 187 189 190 192 194 195 197 198 199 200 199 200 201 202 202 202 204 203 202 203 204 205 207 208 206 205 204 204 204 208 210 210 210 211 211 212 213 214 217 220 223 223 225 228 229 229 229 229 230 231 230 230 230 228 228 232 237 240 240 244
26 32 42 71 105 115 139 145 142 134 127 139 148 143 139 133 123 127 139 146 155 164 172 175 173 177 182 184 187 188 189 191 193 195 196 196 198 199 198 198 199 201 202 203 205 204 202 203 203 204 206 207 206 204 204 203 203 205 207 207 209 212 215 217 217 218 219 221 223 223 223 227 228 228 227 228 230 231 231 229 228 227 227 232 239 243 245 247
30 37 46 62 92 122 139 142 141 140 138 139 140 138 131 119 115 126 140 148 156 164 164 160 165 175 179 183 187 188 190 192 192 194 195 195 197 197 197 197 198 201 202 203 205 205 204 204 204 204 204 203 201 201 202 203 203 204 206 205 206 208 213 217 219 220 222 223 224 224 224 226 228 229 227 228 230 232 232 229 227 226 226 229 239 244 245 248
32 38 49 68 97 124 136 138 139 141 140 138 138 135 119 106 114 129 142 151 157 157 152 148 153 164 173 180 185 187 190 192 192 192 192 194 196 196 196 196 197 199 200 201 205 206 205 206 206 206 207 206 205 204 203 203 203 203 204 205 205 206 209 213 217 220 222 223 223 223 222 224 228 231 229 228 230 231 232 231 227 225 224 228 237 241 241 246
35 41 55 77 102 121 130 133 136 141 143 142 139 127 105 103 117 132 144 155 158 151 146 140 137 145 160 172 179 184 186 189 191 191 191 194 195 195 195 195 196 197 196 197 202 204 203 205 208 209 210 211 212 211 207 206 204 203 203 204 205 205 208 211 214 218 220 222 223 222 222 223 226 230 231 229 229 230 231 231 229 227 226 227 233 236 237 245
38 47 62 84 104 118 125 130 138 143 143 137 124 107 99 106 118 130 143 158 158 150 145 137 132 141 153 161 172 178 181 184 187 188 190 194 195 195 194 195 196 196 196 196 200 201 201 202 205 208 209 209 210 210 209 209 209 207 206 206 204 204 207 209 212 215 218 220 222 222 224 225 225 227 231 231 229 229 230 230 230 229 227 225 225 229 234 242
41 52 69 89 104 116 126 134 140 139 130 115 99 93 97 107 115 122 135 151 156 152 147 140 140 152 156 150 159 169 176 179 181 184 189 192 194 194 194 194 195 196 197 198 199 200 199 199 201 204 208 208 206 204 205 207 208 207 207 209 208 206 206 208 210 214 217 219 220 222 224 226 226 226 230 233 232 230 228 229 230 231 229 224 223 227 234 241
44 54 69 88 104 120 132 135 133 124 106 89 84 91 101 109 113 123 137 145 148 149 148 145 148 152 146 140 143 156 171 175 176 181 186 190 193 194 194 195 195 195 197 199 201 200 197 196 199 202 206 208 206 204 204 205 207 207 207 207 208 209 209 209 211 215 216 217 219 221 223 226 227 228 230 233 234 233 231 229 230 232 233 229 227 230 235 240
62 70 81 98 114 127 132 127 115 98 82 76 84 95 105 112 118 131 143 145 144 148 148 146 150 148 142 139 137 147 165 172 174 179 183 187 192 194 195 196 196 196 196 198 202 202 197 195 197 200 205 208 207 205 203 203 206 207 207 207 206 207 209 211 212 214 215 217 218 220 222 225 227 228 230 231 233 235 235 233 232 234 235 235 234 236 239 243
83 91 99 110 117 120 119 107 88 77 74 81 95 101 104 112 123 138 148 144 145 151 148 145 150 147 140 137 134 143 161 167 171 177 180 181 187 194 196 197 197 198 197 198 200 201 198 196 197 199 203 206 206 205 205 204 204 205 206 207 206 206 208 210 211 213 215 217 218 219 221 223 226 229 231 232 232 234 236 237 238 238 239 240 239 240 242 244
83 90 95 99 97 89 82 78 76 78 82 92 104 104 99 102 115 135 146 144 146 151 149 147 151 148 142 136 128 133 152 162 167 173 176 177 182 188 191 195 198 198 198 199 200 197 195 195 197 200 202 205 205 205 206 206 206 205 205 205 205 206 207 209 210 212 215 216 218 220 222 223 225 230 233 234 234 235 236 238 240 241 243 245 245 245 246 246
Height
5714 5713 5713 5712 5712 5712 5712 5712 5712 5713 5713 5713 5714 5714 5715 5715 5716 5717 5719 5720 5722 5723 5725 5727 5729 5731 5732 5734 5736 5739 5741 5743 5746 5749 5752 5753 5755 5758 5760 5762 5765 5769 5771 5774 5777 5779 5781 5783 5785 5787 5788 5790 5792 5794 5795 5798 5800 5802 5804 5806 5810 5814 5816 5818 5819 5818 5818 5820 5822 5824 5827 5829 5832 5833 5833 5835 5836 5838 5839 5841 5842 5844 5846 5847 5847 5849 5851 5852
5709 5708 5708 5707 5707 5707 5707 5707 5707 5707 5707 5708 5708 5709 5709 5710 5711 5712 5713 5714 5716 5717 5719 5721 5723 5725 5727 5729 5731 5734 5736 5738 5741 5744 5746 5747 5750 5753 5755 5758 5761 5765 5768 5770 5773 5775 5777 5779 5781 5783 5785 5787 5789 5791 5792 5794 5796 5798 5800 5803 5808 5811 5813 5814 5814 5814 5815 5817 5820 5822 5824 5826 5829 5830 5831 5832 5833 5835 5837 5838 5840 5842 5844 5845 5845 5847 5848 5850
5704 5703 5702 5702 5702 5701 5701 5701 5701 5702 5702 5702 5703 5703 5704 5705 5705 5706 5707 5708 5710 5711 5713 5715 5717 5720 5722 5724 5726 5728 5731 5733 5736 5738 5740 5743 5745 5747 5750 5753 5756 5760 5763 5766 5768 5771 5773 5775 5777 5779 5782 5784 5786 5787 5789 5791 5793 5795 5797 5800 5805 5808 5808 5809 5810 5811 5812 5814 5817 5819 5821 5824 5826 5827 5828 5830 5831 5833 5834 5836 5838 5840 5842 5843 5844 5844 5846 5847
5699 5698 5697 5696 5696 5696 5696 5696 5696 5696 5696 5697 5697 5698 5698 5699 5700 5701 5702 5703 5704 5706 5708 5709 5711 5713 5716 5718 5720 5723 5725 5728 5731 5732 5734 5738 5740 5742 5745 5748 5751 5755 5758 5761 5764 5766 5768 5771 5773 5776 5778 5781 5783 5784 5786 5788 5790 5792 5794 5798 5802 5803 5804 5805 5806 5808 5809 5811 5814 5816 5818 5820 5823 5825 5826 5828 5829 5830 5832 5833 5836 5838 5839 5840 5841 5842 5843 5844
5694 5693 5692 5691 5691 5690 5690 5690 5690 5690 5691 5691 5691 5692 5693 5694 5695 5696 5697 5698 5699 5700 5702 5704 5705 5708 5710 5712 5714 5718 5720 5722 5726 5727 5729 5732 5735 5737 5740 5743 5746 5750 5753 5756 5758 5761 5764 5767 5770 5772 5775 5777 5780 5781 5784 5786 5787 5789 5792 5794 5797 5799 5801 5802 5803 5805 5806 5808 5811 5813 5815 5818 5820 5822 5824 5825 5826 5827 5828 5830 5832 5835 5837 5838 5839 5840 5841 5842
5688 5687 5687 5686 5685 5685 5684 5684 5684 5684 5685 5685 5686 5687 5687 5688 5689 5690 5691 5692 5694 5695 5696 5698 5700 5702 5704 5706 5709 5712 5714 5717 5720 5722 5723 5726 5729 5732 5734 5738 5741 5744 5748 5751 5753 5757 5760 5763 5766 5769 5771 5774 5776 5778 5781 5782 5784 5786 5788 5790 5793 5796 5798 5799 5800 5802 5803 5806 5808 5810 5813 5815 5818 5820 5822 5823 5824 5825 5826 5828 5830 5833 5835 5836 5837 5838 5839 5841
5682 5681 5681 5680 5680 5679 5678 5678 5678 5678 5679 5679 5680 5681 5682 5683 5683 5685 5686 5687 5688 5690 5691 5693 5694 5696 5698 5701 5703 5706 5709 5712 5713 5716 5718 5721 5724 5727 5729 5733 5736 5739 5743 5746 5749 5753 5756 5759 5763 5765 5768 5770 5773 5775 5777 5779 5781 5783 5785 5786 5789 5792 5794 5796 5798 5799 5801 5803 5805 5807 5810 5812 5815 5817 5819 5821 5822 5823 5824 5826 5828 5830 5833 5835 5835 5836 5837 5839
5676 5675 5674 5674 5674 5673 5673 5672 5672 5672 5673 5673 5674 5675 5676 5677 5678 5679 5680 5681 5683 5684 5686 5688 5690 5691 5693 5695 5697 5700 5704 5705 5706 5709 5713 5715 5718 5721 5724 5727 5730 5734 5738 5741 5744 5748 5752 5755 5758 5761 5764 5767 5769 5771 5773 5775 5777 5780 5782 5783 5786 5789 5791 5792 5794 5796 5798 5800 5802 5805 5807 5809 5811 5814 5817 5818 5820 5821 5823 5825 5826 5828 5831 5833 5834 5835 5836 5837
5670 5669 5668 5667 5667 5667 5667 5666 5666 5666 5666 5667 5667 5668 5669 5670 5672 5673 5674 5675 5677 5679 5680 5682 5684 5686 5688 5690 5691 5696 5698 5698 5699 5703 5707 5710 5713 5715 5719 5722 5725 5729 5733 5736 5739 5743 5747 5751 5754 5757 5760 5763 5765 5768 5770 5772 5775 5777 5779 5780 5782 5785 5787 5789 5791 5793 5795 5797 5799 5802 5804 5806 5808 5812 5814 5816 5817 5819 5821 5823 5824 5826 5829 5831 5832 5833 5834 5835
5664 5663 5662 5661 5660 5660 5660 5660 5659 5659 5660 5660 5661 5662 5662 5664 5665 5666 5668 5669 5671 5673 5675 5677 5679 5681 5683 5684 5687 5691 5692 5691 5693 5697 5700 5704 5708 5711 5714 5717 5720 5724 5728 5731 5735 5740 5744 5747 5750 5753 5756 5759 5761 5764 5766 5768 5772 5774 5775 5777 5779 5781 5784 5785 5787 5790 5792 5794 5796 5799 5801 5803 5806 5809 5811 5813 5815 5817 5819 5820 5821 5824 5827 5829 5830 5831 5832 5833
5657 5656 5655 5654 5653 5653 5653 5653 5653 5652 5653 5654 5654 5655 5655 5657 5658 5660 5661 5663 5665 5667 5669 5671 5673 5676 5677 5679 5683 5685 5685 5685 5687 5690 5694 5699 5702 5706 5709 5712 5716 5720 5724 5727 5731 5736 5739 5743 5746 5749 5752 5755 5758 5760 5762 5765 5769 5771 5772 5774 5776 5778 5780 5782 5785 5787 5790 5792 5794 5796 5798 5801 5804 5806 5809 5811 5813 5815 5817 5818 5819 5822 5825 5827 5828 5829 5830 5831
5650 5649 5648 5647 5646 5646 5645 5645 5645 5645 5646 5646 5647 5648 5648 5650 5651 5653 5654 5656 5658 5660 5663 5665 5667 5670 5671 5675 5679 5678 5678 5680 5682 5685 5689 5693 5697 5701 5704 5708 5711 5715 5719 5723 5727 5731 5734 5738 5742 5745 5748 5752 5755 5757 5759 5762 5765 5768 5770 5772 5774 5775 5777 5779 5782 5784 5787 5790 5792 5793 5795 5798 5802 5804 5806 5808 5811 5813 5815 5816 5818 5820 5823 5824 5826 5827 5828 5829
5642 5641 5640 5639 5638 5638 5638 5638 5638 5638 5638 5639 5640 5641 5641 5642 5644 5645 5647 5649 5652 5654 5657 5658 5661 5664 5665 5671 5674 5670 5671 5675 5678 5681 5684 5688 5692 5696 5700 5703 5706 5710 5714 5718 5722 5725 5729 5734 5738 5741 5745 5748 5751 5753 5756 5759 5762 5766 5768 5770 5771 5772 5774 5776 5778 5781 5785 5787 5789 5791 5793 5797 5799 5802 5804 5806 5809 5811 5813 5815 5817 5819 5821 5822 5824 5825 5826 5827
5634 5633 5632 5631 5630 5630 5630 5630 5630 5630 5630 5631 5632 5633 5634 5635 5636 5638 5640 5643 5645 5647 5650 5652 5655 5657 5660 5668 5667 5663 5666 5671 5674 5675 5677 5682 5686 5690 5695 5698 5701 5705 5709 5712 5716 5720 5724 5729 5733 5737 5740 5743 5747 5749 5752 5756 5760 5763 5765 5766 5768 5770 5772 5774 5775 5778 5782 5784 5786 5788 5791 5794 5797 5799 5802 5804 5806 5809 5811 5813 5815 5817 5819 5820 5821 5823 5824 5824
5626 5624 5623 5622 5622 5621 5621 5621 5621 5621 5622 5623 5624 5626 5627 5627 5628 5630 5633 5635 5638 5640 5643 5646 5648 5650 5655 5662 5661 5658 5663 5667 5668 5670 5672 5677 5681 5685 5689 5693 5696 5700 5703 5707 5711 5715 5719 5724 5728 5732 5735 5739 5743 5745 5748 5753 5756 5759 5761 5763 5765 5767 5769 5770 5772 5775 5779 5782 5783 5785 5789 5792 5795 5797 5799 5802 5804 5806 5808 5810 5813 5815 5817 5818 5819 5820 5821 5822
5617 5616 5614 5613 5613 5612 5612 5612 5612 5613 5613 5614 5615 5617 5619 5619 5621 5623 5626 5628 5631 5633 5636 5639 5642 5644 5649 5655 5655 5654 5658 5661 5663 5666 5668 5672 5676 5680 5684 5687 5691 5694 5698 5702 5706 5710 5714 5718 5723 5727 5731 5734 5738 5741 5744 5749 5752 5755 5758 5760 5762 5765 5766 5768 5770 5773 5777 5779 5780 5783 5786 5790 5793 5795 5797 5800 5802 5804 5806 5808 5810 5812 5814 5815 5816 5817 5819 5820
5608 5607 5605 5604 5604 5604 5603 5603 5603 5603 5604 5605 5606 5609 5611 5611 5613 5616 5618 5621 5624 5626 5629 5632 5636 5639 5643 5648 5649 5650 5652 5655 5659 5662 5663 5666 5671 5675 5679 5682 5686 5689 5693 5697 5701 5705 5709 5713 5718 5722 5726 5730 5733 5736 5739 5743 5747 5751 5754 5757 5760 5762 5764 5766 5768 5771 5774 5776 5778 5781 5784 5787 5790 5792 5795 5798 5800 5802 5804 5806 5808 5810 5811 5812 5813 5815 5816 5818
5599 5598 5596 5595 5594 5594 5594 5594 5594 5594 5595 5596 5598 5600 5602 5603 5605 5608 5611 5614 5617 5619 5622 5626 5629 5633 5637 5640 5643 5645 5648 5650 5654 5657 5658 5662 5665 5669 5673 5677 5681 5685 5688 5692 5696 5700 5704 5708 5713 5718 5721 5725 5728 5731 5734 5739 5745 5749 5752 5755 5758 5761 5763 5764 5766 5769 5772 5774 5775 5778 5781 5784 5787 5790 5792 5795 5798 5800 5802 5804 5805 5806 5808 5810 5811 5813 5814 5816
5590 5588 5586 5585 5584 5584 5584 5584 5584 5584 5585 5587 5588 5590 5592 5594 5597 5600 5603 5606 5610 5613 5616 5619 5623 5627 5631 5634 5637 5640 5643 5645 5649 5652 5654 5657 5660 5664 5668 5672 5675 5680 5684 5688 5692 5695 5700 5704 5708 5712 5716 5720 5723 5727 5731 5737 5742 5746 5749 5754 5757 5759 5760 5762 5764 5767 5769 5771 5773 5775 5778 5782 5784 5787 5790 5792 5796 5798 5799 5800 5802 5804 5806 5808 5809 5810 5811 5813
5580 5578 5576 5574 5573 5573 5573 5573 5574 5574 5574 5576 5579 5580 5582 5585 5588 5591 5595 5599 5602 5606 5609 5614 5618 5621 5625 5628 5631 5635 5638 5640 5644 5647 5649 5652 5655 5659 5663 5667 5670 5674 5679 5683 5687 5692 5696 5700 5704 5708 5713 5717 5722 5725 5730 5735 5739 5742 5746 5750 5753 5756 5758 5760 5762 5764 5766 5768 5770 5772 5776 5779 5781 5784 5787 5789 5792 5795 5796 5797 5800 5803 5805 5806 5807 5807 5808 5810
5568 5566 5564 5562 5561 5560 5560 5561 5561 5562 5563 5565 5567 5570 5573 5576 5580 5583 5587 5591 5596 5599 5603 5607 5611 5615 5618 5622 5625 5628 5632 5635 5639 5642 5645 5648 5651 5654 5658 5662 5666 5670 5674 5678 5682 5687 5692 5696 5701 5706 5711 5716 5720 5724 5727 5731 5735 5739 5743 5746 5749 5753 5755 5757 5759 5762 5764 5766 5768 5770 5773 5776 5778 5780 5783 5785 5788 5791 5794 5796 5799 5802 5803 5804 5804 5804 5806 5808
5555 5552 5550 5548 5547 5547 5547 5547 5547 5549 5551 5552 5556 5559 5563 5566 5570 5574 5578 5584 5589 5592 5596 5600 5604 5610 5612 5614 5618 5622 5627 5631 5633 5637 5640 5643 5646 5649 5653 5657 5661 5665 5670 5673 5677 5682 5686 5691 5697 5702 5708 5712 5716 5719 5723 5727 5732 5736 5739 5743 5746 5749 5752 5754 5756 5759 5761 5764 5766 5768 5771 5773 5775 5777 5779 5782 5785 5789 5792 5794 5796 5797 5799 5801 5801 5802 5805 5805
5541 5538 5536 5534 5533 5532 5532 5533 5534 5535 5537 5539 5543 5547 5551 5555 5560 5565 5569 5575 5581 5584 5588 5593 5598 5603 5605 5606 5612 5617 5622 5626 5628 5632 5636 5638 5641 5645 5649 5653 5657 5661 5665 5669 5674 5678 5682 5687 5693 5698 5703 5707 5711 5715 5719 5723 5728 5732 5735 5739 5743 5746 5749 5751 5753 5756 5758 5761 5763 5766 5769 5770 5771 5773 5776 5779 5783 5785 5786 5787 5789 5791 5795 5797 5799 5800 5801 5802
5528 5525 5523 5520 5518 5518 5518 5519 5520 5521 5523 5526 5530 5535 5539 5544 5550 5556 5559 5566 5573 5576 5580 5586 5591 5596 5597 5599 5606 5613 5617 5621 5624 5627 5631 5634 5637 5641 5645 5649 5653 5657 5661 5666 5670 5675 5679 5684 5690 5695 5699 5704 5707 5711 5715 5720 5725 5728 5731 5735 5739 5743 5746 5748 5750 5753 5756 5758 5761 5764 5766 5767 5768 5771 5773 5776 5779 5781 5781 5783 5786 5789 5792 5794 5797 5798 5798 5801
5516 5513 5510 5508 5506 5505 5505 5506 5507 5509 5511 5514 5518 5522 5526 5533 5540 5546 5550 5557 5565 5570 5572 5579 5584 5587 5589 5594 5603 5609 5613 5616 5619 5623 5627 5630 5633 5637 5641 5645 5649 5653 5658 5662 5666 5670 5674 5680 5686 5691 5696 5701 5704 5708 5712 5717 5722 5725 5729 5733 5736 5740 5743 5745 5748 5750 5753 5755 5758 5761 5763 5764 5766 5768 5770 5773 5775 5776 5778 5782 5786 5789 5791 5793 5795 5796 5797 5800
5505 5501 5498 5495 5493 5492 5492 5493 5494 5497 5500 5503 5508 5510 5514 5524 5530 5535 5542 5550 5558 5563 5565 5571 5577 5579 5584 5591 5598 5603 5607 5612 5614 5618 5623 5626 5630 5633 5636 5640 5645 5649 5653 5657 5662 5666 5670 5675 5681 5686 5692 5697 5700 5705 5710 5714 5718 5722 5726 5730 5733 5737 5740 5742 5745 5747 5750 5752 5755 5758 5759 5761 5764 5765 5767 5769 5771 5772 5774 5779 5783 5786 5788 5791 5793 5794 5796 5798
5495 5491 5487 5484 5481 5480 5479 5480 5482 5486 5489 5493 5497 5500 5505 5515 5520 5526 5535 5543 5549 5555 5559 5564 5570 5574 5580 5587 5592 5597 5602 5606 5608 5613 5618 5622 5626 5629 5632 5636 5641 5644 5648 5653 5656 5661 5666 5671 5676 5681 5686 5692 5696 5701 5706 5711 5715 5719 5723 5727 5729 5734 5737 5740 5742 5744 5747 5750 5753 5755 5757 5758 5760 5763 5765 5766 5768 5769 5771 5775 5780 5783 5785 5788 5790 5792 5794 5796
5487 5482 5478 5474 5471 5470 5469 5470 5472 5476 5480 5483 5488 5492 5498 5506 5512 5519 5528 5535 5542 5548 5553 5558 5563 5569 5576 5582 5587 5592 5597 5600 5604 5609 5613 5617 5621 5625 5629 5633 5637 5642 5646 5649 5652 5656 5661 5666 5672 5677 5682 5686 5691 5697 5703 5707 5711 5715 5720 5723 5726 5730 5733 5737 5740 5742 5745 5747 5749 5751 5753 5755 5757 5760 5762 5763 5765 5766 5769 5773 5778 5780 5782 5785 5788 5790 5791 5794
5480 5475 5471 5467 5464 5463 5463 5463 5465 5468 5472 5477 5483 5487 5493 5500 5505 5512 5520 5529 5536 5541 5547 5552 5557 5564 5571 5576 5581 5586 5591 5595 5599 5604 5608 5612 5617 5622 5625 5630 5635 5639 5643 5646 5649 5653 5658 5663 5669 5674 5679 5684 5689 5694 5699 5704 5708 5712 5717 5719 5722 5726 5730 5733 5736 5739 5741 5743 5745 5748 5750 5751 5753 5757 5759 5760 5763 5765 5768 5772 5776 5778 5780 5783 5786 5788 5789 5791
5475 5470 5465 5462 5460 5460 5459 5459 5460 5463 5468 5474 5479 5484 5489 5495 5500 5506 5515 5525 5532 5536 5542 5547 5552 5559 5565 5571 5576 5580 5586 5591 5595 5599 5604 5608 5613 5618 5622 5626 5631 5635 5639 5642 5645 5649 5655 5660 5665 5671 5676 5681 5686 5691 5696 5700 5704 5708 5713 5716 5719 5723 5726 5730 5733 5736 5737 5739 5742 5745 5747 5748 5750 5753 5756 5758 5761 5764 5767 5770 5773 5775 5778 5781 5783 5785 5786 5788
5472 5466 5461 5459 5458 5457 5457 5457 5458 5461 5465 5471 5477 5481 5486 5491 5496 5503 5512 5521 5528 5532 5537 5543 5548 5554 5560 5566 5571 5576 5581 5586 5591 5596 5600 5604 5608 5613 5617 5620 5625 5630 5634 5637 5640 5645 5650 5654 5661 5667 5672 5676 5681 5686 5691 5696 5699 5704 5709 5712 5715 5718 5722 5726 5729 5732 5733 5735 5739 5743 5744 5744 5745 5749 5754 5756 5759 5762 5763 5767 5769 5772 5776 5779 5781 5782 5784 5785
5470 5464 5459 5457 5456 5456 5455 5455 5457 5460 5465 5470 5475 5480 5485 5489 5494 5501 5508 5517 5525 5529 5534 5539 5545 5550 5557 5562 5567 5572 5577 5582 5587 5592 5597 5601 5605 5610 5613 5617 5621 5625 5628 5632 5636 5641 5646 5651 5656 5663 5667 5671 5676 5681 5685 5689 5693 5698 5704 5707 5710 5713 5717 5721 5724 5727 5729 5730 5735 5739 5740 5739 5741 5747 5752 5753 5756 5758 5760 5764 5766 5769 5773 5776 5778 5780 5781 5782
5469 5463 5458 5455 5455 5454 5454 5454 5457 5461 5466 5471 5475 5479 5484 5489 5494 5500 5507 5515 5523 5526 5530 5536 5542 5548 5553 5558 5563 5568 5573 5579 5583 5588 5593 5597 5602 5607 5610 5614 5619 5622 5626 5629 5632 5636 5641 5646 5652 5658 5663 5667 5672 5676 5680 5684 5689 5693 5698 5703 5705 5707 5711 5716 5719 5723 5726 5726 5731 5737 5738 5735 5738 5744 5748 5750 5753 5756 5758 5761 5764 5766 5769 5772 5774 5775 5777 5779
5469 5462 5457 5454 5453 5452 5452 5454 5458 5462 5466 5470 5474 5478 5483 5489 5495 5501 5505 5513 5520 5524 5528 5534 5540 5544 5549 5554 5559 5564 5570 5575 5580 5584 5589 5593 5598 5602 5607 5611 5616 5619 5624 5628 5630 5633 5637 5641 5646 5652 5658 5663 5668 5673 5678 5684 5688 5692 5697 5701 5702 5705 5709 5714 5718 5721 5724 5725 5729 5735 5734 5733 5736 5741 5745 5748 5750 5752 5755 5759 5761 5763 5766 5768 5770 5772 5774 5777
5470 5463 5457 5453 5452 5452 5452 5455 5459 5463 5467 5471 5474 5478 5483 5490 5496 5501 5506 5512 5519 5522 5526 5532 5537 5541 5545 5550 5556 5561 5566 5572 5577 5581 5585 5590 5595 5599 5603 5608 5612 5616 5620 5625 5628 5632 5636 5640 5645 5650 5655 5660 5664 5669 5675 5680 5684 5689 5695 5698 5700 5704 5709 5714 5718 5721 5723 5723 5726 5731 5731 5730 5733 5737 5742 5746 5748 5750 5753 5756 5758 5760 5763 5765 5768 5771 5773 5775
5471 5466 5460 5456 5454 5454 5455 5459 5462 5465 5468 5471 5474 5479 5485 5490 5495 5500 5506 5512 5518 5521 5525 5531 5535 5539 5543 5548 5553 5558 5563 5568 5573 5578 5583 5587 5592 5596 5601 5605 5609 5613 5617 5621 5624 5628 5634 5639 5644 5649 5654 5658 5662 5667 5672 5676 5679 5684 5688 5693 5697 5702 5707 5711 5714 5717 5719 5720 5723 5728 5729 5728 5730 5735 5739 5743 5746 5748 5751 5753 5755 5757 5760 5763 5766 5770 5773 5774
5473 5469 5465 5461 5459 5459 5460 5463 5465 5468 5470 5473 5477 5482 5487 5490 5494 5499 5506 5512 5517 5520 5524 5530 5533 5537 5542 5546 5550 5555 5560 5565 5570 5575 5580 5585 5589 5593 5598 5602 5607 5611 5615 5619 5622 5626 5632 5636 5641 5646 5652 5657 5661 5666 5670 5674 5678 5681 5685 5690 5695 5699 5702 5706 5709 5712 5714 5715 5719 5725 5726 5726 5729 5732 5737 5740 5743 5746 5749 5750 5752 5755 5759 5762 5765 5768 5771 5772
5475 5472 5469 5467 5466 5465 5466 5468 5469 5471 5472 5475 5479 5484 5488 5491 5495 5500 5506 5512 5516 5519 5524 5529 5531 5535 5540 5545 5549 5554 5558 5563 5568 5572 5577 5582 5586 5591 5595 5599 5604 5608 5612 5617 5621 5625 5630 5634 5639 5644 5649 5654 5658 5662 5666 5670 5674 5679 5684 5689 5693 5695 5698 5701 5704 5707 5709 5712 5716 5721 5723 5724 5726 5730 5734 5738 5741 5744 5747 5748 5751 5754 5758 5761 5763 5766 5767 5769
5476 5473 5472 5471 5470 5470 5471 5471 5472 5473 5475 5478 5482 5485 5488 5492 5496 5501 5506 5512 5516 5519 5524 5527 5530 5534 5539 5543 5548 5552 5557 5561 5566 5570 5575 5580 5584 5589 5593 5597 5601 5605 5609 5614 5618 5622 5627 5631 5637 5642 5646 5650 5654 5657 5661 5665 5669 5674 5680 5685 5690 5693 5696 5699 5701 5704 5707 5709 5713 5718 5720 5721 5724 5727 5732 5736 5738 5741 5744 5746 5749 5753 5756 5759 5761 5763 5764 5765
5476 5474 5473 5472 5472 5472 5472 5473 5474 5475 5478 5482 5485 5488 5490 5493 5497 5501 5506 5511 5515 5519 5524 5526 5530 5534 5538 5542 5546 5551 5555 5559 5564 5568 5573 5577 5581 5586 5590 5594 5599 5603 5607 5612 5615 5620 5624 5629 5634 5638 5642 5646 5650 5653 5658 5663 5667 5671 5675 5679 5683 5687 5691 5696 5700 5702 5705 5707 5710 5715 5717 5719 5722 5725 5729 5733 5736 5739 5741 5744 5747 5751 5754 5756 5758 5760 5761 5760
5476 5473 5472 5472 5472 5473 5473 5474 5476 5478 5481 5485 5487 5490 5493 5496 5499 5504 5508 5512 5515 5520 5524 5527 5530 5534 5537 5541 5545 5549 5554 5557 5562 5566 5571 5575 5579 5583 5588 5592 5596 5601 5605 5609 5612 5617 5622 5626 5631 5635 5638 5642 5647 5652 5658 5663 5668 5671 5674 5678 5681 5684 5688 5692 5695 5698 5702 5704 5707 5711 5714 5716 5719 5722 5726 5731 5733 5736 5739 5742 5745 5749 5752 5753 5755 5757 5759 5758
5477 5473 5472 5472 5472 5473 5473 5475 5478 5481 5484 5487 5490 5492 5496 5499 5502 5506 5510 5513 5517 5521 5524 5527 5530 5534 5537 5541 5545 5548 5552 5556 5561 5565 5569 5573 5578 5582 5586 5590 5595 5599 5604 5608 5611 5616 5620 5624 5629 5633 5636 5641 5646 5652 5657 5662 5666 5670 5674 5678 5682 5685 5687 5690 5691 5694 5698 5700 5703 5708 5712 5713 5716 5720 5724 5728 5731 5733 5737 5740 5743 5746 5749 5750 5752 5754 5756 5756
5479 5476 5474 5473 5473 5474 5475 5478 5481 5484 5487 5489 5492 5496 5499 5502 5506 5509 5512 5515 5518 5522 5525 5528 5531 5534 5537 5541 5544 5548 5551 5555 5560 5564 5568 5572 5576 5580 5585 5589 5594 5598 5602 5606 5610 5614 5619 5623 5627 5630 5635 5640 5646 5651 5655 5658 5661 5665 5668 5673 5678 5683 5686 5689 5691 5694 5697 5698 5701 5705 5708 5711 5714 5718 5722 5725 5728 5731 5734 5737 5741 5743 5746 5748 5749 5751 5753 5753
5484 5480 5478 5476 5476 5477 5480 5483 5486 5488 5490 5493 5496 5500 5503 5505 5509 5512 5514 5517 5520 5523 5526 5529 5532 5535 5538 5541 5544 5548 5551 5554 5559 5563 5568 5572 5575 5579 5584 5588 5593 5597 5601 5606 5610 5614 5618 5621 5624 5628 5631 5636 5640 5645 5649 5652 5656 5660 5664 5668 5673 5677 5682 5686 5689 5693 5695 5697 5700 5703 5706 5709 5713 5716 5720 5723 5726 5729 5732 5735 5738 5741 5744 5746 5746 5748 5750 5751
5490 5486 5484 5482 5482 5484 5486 5489 5491 5493 5495 5497 5500 5503 5506 5509 5512 5515 5517 5520 5522 5525 5528 5531 5534 5536 5539 5541 5544 5548 5551 5555 5559 5564 5568 5572 5575 5579 5583 5588 5592 5596 5601 5606 5609 5613 5617 5620 5623 5626 5629 5632 5635 5639 5642 5646 5650 5655 5660 5665 5669 5674 5678 5682 5686 5690 5692 5695 5698 5700 5704 5708 5711 5714 5717 5721 5724 5727 5730 5733 5736 5738 5741 5743 5744 5746 5748 5749
5496 5493 5491 5490 5490 5491 5493 5495 5496 5497 5499 5501 5503 5506 5509 5512 5515 5518 5520 5522 5524 5527 5530 5533 5536 5538 5540 5543 5545 5549 5552 5556 5561 5565 5568 5572 5575 5579 5583 5587 5591 5595 5599 5603 5606 5611 5615 5619 5623 5626 5630 5634 5638 5641 5644 5647 5650 5654 5658 5662 5666 5671 5675 5679 5683 5686 5689 5693 5696 5698 5702 5705 5709 5712 5715 5718 5721 5724 5727 5730 5733 5736 5739 5741 5742 5744 5745 5747
5502 5499 5498 5497 5497 5498 5499 5500 5501 5502 5503 5505 5508 5510 5512 5515 5518 5521 5523 5525 5527 5530 5533 5536 5538 5541 5543 5544 5546 5549 5553 5557 5561 5565 5569 5572 5575 5579 5583 5586 5590 5594 5597 5601 5604 5608 5613 5617 5621 5625 5629 5633 5637 5642 5646 5649 5652 5655 5658 5661 5664 5668 5672 5676 5679 5683 5687 5690 5693 5696 5700 5703 5706 5710 5712 5715 5718 5722 5725 5728 5730 5733 5736 5738 5740 5742 5743 5745
5508 5506 5505 5504 5504 5504 5505 5505 5505 5507 5509 5511 5512 5514 5516 5518 5521 5523 5525 5527 5530 5533 5535 5537 5540 5542 5544 5546 5548 5551 5554 5557 5561 5565 5569 5572 5575 5579 5582 5586 5589 5593 5596 5599 5602 5606 5611 5615 5619 5623 5626 5630 5634 5638 5642 5645 5649 5653 5657 5660 5664 5667 5670 5673 5677 5680 5684 5688 5691 5694 5698 5700 5704 5707 5710 5713 5716 5719 5722 5725 5727 5730 5733 5736 5738 5740 5742 5743
5513 5512 5511 5510 5510 5510 5510 5510 5511 5512 5514 5515 5516 5518 5520 5522 5523 5525 5526 5529 5532 5535 5537 5539 5541 5543 5545 5547 5550 5552 5555 5558 5561 5565 5568 5572 5575 5578 5582 5585 5588 5592 5596 5599 5602 5605 5610 5614 5618 5621 5624 5627 5631 5635 5639 5643 5646 5650 5654 5658 5662 5666 5669 5673 5676 5679 5682 5686 5689 5692 5695 5698 5701 5705 5708 5711 5713 5716 5719 5722 5725 5727 5730 5733 5735 5738 5740 5741
5519 5517 5517 5516 5516 5516 5516 5516 5517 5517 5518 5519 5520 5521 5523 5524 5526 5527 5529 5532 5534 5536 5539 5541 5543 5545 5547 5549 5552 5554 5557 5559 5562 5565 5568 5571 5574 5578 5581 5584 5588 5591 5595 5598 5601 5605 5609 5613 5617 5620 5622 5626 5629 5633 5637 5640 5643 5647 5651 5655 5659 5663 5667 5670 5673 5677 5680 5683 5686 5690 5692 5696 5699 5702 5705 5708 5711 5713 5716 5719 5722 5724 5727 5730 5733 5735 5737 5739
5525 5523 5523 5522 5522 5522 5521 5521 5522 5522 5522 5523 5524 5526 5527 5528 5530 5532 5534 5536 5537 5539 5541 5543 5545 5547 5549 5551 5553 5556 5557 5559 5562 5565 5568 5572 5575 5578 5581 5584 5588 5591 5594 5597 5600 5605 5609 5613 5615 5618 5621 5624 5628 5632 5635 5638 5641 5644 5648 5652 5656 5660 5663 5667 5671 5675 5678 5681 5684 5687 5690 5693 5697 5700 5702 5705 5708 5711 5714 5716 5719 5722 5724 5727 5730 5732 5734 5736
5531 5529 5529 5528 5527 5527 5527 5526 5526 5526 5527 5528 5529 5530 5531 5533 5534 5536 5537 5539 5540 5542 5543 5545 5547 5549 5551 5552 5554 5556 5558 5560 5563 5566 5569 5573 5576 5579 5582 5585 5588 5591 5594 5597 5600 5604 5608 5612 5614 5617 5620 5623 5627 5630 5633 5636 5639 5641 5645 5649 5654 5658 5661 5665 5669 5672 5675 5678 5681 5685 5688 5692 5695 5698 5700 5703 5706 5709 5711 5714 5717 5719 5722 5724 5726 5729 5731 5733